This is the latest recevied weather packets stored in our database for station/object N0NB. If no packets are shown the sender has not sent any weather packets the latest 10 day(s).
| Time | Temp. | Humidity | Pressure | Rain* | Wind** | Luminosity | Snow |
|---|---|---|---|---|---|---|---|
| 1788282315 | 32.22° C | 50% | 1013 hPa | 0 mm | - | 705 W/m² | - |
| 1788281722 | 32.22° C | 51% | 1013.1 hPa | 0 mm | - | 690 W/m² | - |
| 1788281116 | 31.67° C | 51% | 1013.1 hPa | 0 mm | - | 674 W/m² | - |
| 1788280515 | 31.67° C | 50% | 1012.9 hPa | 0 mm | - | 658 W/m² | - |
| 1788279915 | 31.67° C | 54% | 1012.9 hPa | 0 mm | - | 640 W/m² | - |
| 1788279315 | 31.11° C | 51% | 1012.9 hPa | 0 mm | - | 621 W/m² | - |
| 1788278715 | 31.11° C | 52% | 1012.7 hPa | 0 mm | - | 599 W/m² | - |
| 1788278116 | 30.56° C | 54% | 1012.6 hPa | 0 mm | - | 580 W/m² | - |
| 1788277516 | 30.56° C | 55% | 1012.7 hPa | 0 mm | - | 558 W/m² | - |
| 1788276915 | 30° C | 53% | 1012.7 hPa | 0 mm | - | 534 W/m² | - |
| 1788276315 | 30° C | 56% | 1012.7 hPa | 0 mm | - | 507 W/m² | - |
| 1788275716 | 29.44° C | 55% | 1012.6 hPa | 0 mm | - | 481 W/m² | - |
| 1788275126 | 29.44° C | 57% | 1012.8 hPa | 0 mm | - | 457 W/m² | - |
| 1788274515 | 28.89° C | 56% | 1012.7 hPa | 0 mm | - | 430 W/m² | - |
| 1788273915 | 28.89° C | 57% | 1012.8 hPa | 0 mm | - | 403 W/m² | - |
| 1788273327 | 28.33° C | 58% | 1012.8 hPa | 0 mm | - | 374 W/m² | - |
| 1788272715 | 28.33° C | 58% | 1012.8 hPa | 0 mm | - | 344 W/m² | - |
| 1788272118 | 27.78° C | 58% | 1012.9 hPa | 0 mm | - | 315 W/m² | - |
| 1788271517 | 27.22° C | 59% | 1012.9 hPa | 0 mm | - | 287 W/m² | - |
| 1788270917 | 27.22° C | 60% | 1013.1 hPa | 0 mm | - | 256 W/m² | - |
| 1788270317 | 26.67° C | 59% | 1013 hPa | 0 mm | - | 225 W/m² | - |
| 1788269717 | 26.67° C | 60% | 1013.2 hPa | 0 mm | - | 186 W/m² | - |
| 1788269117 | 26.11° C | 60% | 1013 hPa | 0 mm | - | 144 W/m² | - |
| 1788268517 | 26.11° C | 60% | 1013.1 hPa | 0 mm | - | 119 W/m² | - |
| 1788267917 | 25.56° C | 61% | 1013.2 hPa | 0 mm | - | 91 W/m² | - |
* Rain latest hour (hover to see other rain measurements)
** Current wind speed in m/s (hover to see current wind gust speed)